Weather History for Dublin Airport, Ireland

Change the Weather History Date:

Tuesday, February 5, 2013

  Actual Average Record
Temperature  
Mean Temperature 38 °F -  
Max Temperature 44 °F 46 °F - ()
Min Temperature 31 °F 36 °F - ()
Degree Days  
Heating Degree Days 28    
Moisture  
Dew Point 33 °F    
Average Humidity 85    
Maximum Humidity 93    
Minimum Humidity 69    
Precipitation  
Precipitation 0.01 in 0.07 in - ()
Sea Level Pressure  
Sea Level Pressure 29.53 in    
Wind  
Wind Speed 22 mph ()    
Max Wind Speed 34 mph    
Max Gust Speed 47 mph    
Visibility 6.7 miles    
Events Rain , Snow    
T = Trace of Precipitation, MM = Missing Value Source: Averaged Metar Reports

Daily Weather History Graph

Daily Weather History Graph

Search for Another Location

Airport:

Trip Planner

Search our weather history database for the weather conditions in past years. The results will help you decide how hot, cold, wet, or windy it might be!

Date:

Astronomy

Feb. 05, 2013 Rise Set
Actual Time 8:02 AM GMT 5:16 PM GMT
Civil Twilight 7:25 AM GMT 5:53 PM GMT
Nautical Twilight 6:43 AM GMT 6:35 PM GMT
Astronomical Twilight 6:03 AM GMT 7:16 PM GMT
Moon 3:45 AM GMT (2/5) 12:03 PM GMT (2/5)
Length of Visible Light 10h 28m
Length of Day
9h 13m
Waning Crescent, 29% of the Moon is Illuminated
Feb 5
Waning Crescent
Feb 10
New
Feb 17
First Quarter
Feb 25
Full
Mar 4
Last Quarter

Hourly Weather History & Observations

Time (GMT) Temp. Windchill Dew Point Humidity Pressure Visibility Wind Dir Wind Speed Gust Speed Precip Events Conditions
12:00 AM 33 °F - 30 °F 86% 29.68 in 12 mi WSW 20.1 mph - - Snow Light Snow Showers
12:00 AM 33.8 °F 22.2 °F 30.2 °F 87% 29.65 in 6.2 mi WSW 20.7 mph - N/A   Scattered Clouds
12:30 AM 33.8 °F 21.6 °F 30.2 °F 87% 29.65 in 6.2 mi WSW 23.0 mph 34.5 mph N/A   Scattered Clouds
1:00 AM 33.8 °F 21.3 °F 30.2 °F 87% 29.62 in 3.1 mi WSW 24.2 mph - N/A Snow Light Snow Showers
1:30 AM 33.8 °F 21.9 °F 30.2 °F 87% 29.62 in 5.6 mi WSW 21.9 mph - N/A Snow Light Snow Showers
2:00 AM 32.0 °F 19.2 °F 30.2 °F 93% 29.62 in 6.2 mi WSW 23.0 mph - N/A Snow Light Snow Showers
2:30 AM 32.0 °F 19.2 °F 30.2 °F 93% 29.59 in 5.6 mi WSW 23.0 mph 34.5 mph N/A Snow Light Snow Showers
3:00 AM 32.0 °F 19.8 °F 30.2 °F 93% 29.59 in 6.2 mi WSW 20.7 mph - N/A Snow Light Snow Showers
3:30 AM 32.0 °F 19.5 °F 30.2 °F 93% 29.59 in 6.2 mi WSW 21.9 mph - N/A   Mostly Cloudy
4:00 AM 32.0 °F 19.5 °F 30.2 °F 93% 29.56 in 6.2 mi WSW 21.9 mph - N/A   Mostly Cloudy
4:30 AM 32.0 °F 18.9 °F 30.2 °F 93% 29.56 in 6.2 mi WSW 24.2 mph - N/A   Mostly Cloudy
5:00 AM 32.0 °F 19.8 °F 30.2 °F 93% 29.53 in 6.2 mi WSW 20.7 mph - N/A Snow Light Snow Showers
5:30 AM 32.0 °F 19.5 °F 30.2 °F 93% 29.53 in 6.2 mi WSW 21.9 mph - N/A   Mostly Cloudy
6:00 AM 32 °F - 29 °F 85% 29.57 in 19 mi WSW 22.4 mph - - Snow Light Snow Showers
6:00 AM 32.0 °F 19.5 °F 28.4 °F 87% 29.53 in 6.2 mi WSW 21.9 mph - N/A   Mostly Cloudy
6:30 AM 32.0 °F 19.8 °F 28.4 °F 87% 29.53 in 6.2 mi WSW 20.7 mph - N/A   Mostly Cloudy
7:00 AM 32.0 °F 19.8 °F 28.4 °F 87% 29.53 in 6.2 mi WSW 20.7 mph - N/A   Mostly Cloudy
7:30 AM 32.0 °F 19.8 °F 28.4 °F 87% 29.53 in 6.2 mi WSW 20.7 mph - N/A Snow Light Snow Showers
8:00 AM 32.0 °F 19.2 °F 28.4 °F 87% 29.53 in 6.2 mi WSW 23.0 mph - N/A   Partly Cloudy
8:30 AM 32.0 °F 19.2 °F 30.2 °F 93% 29.53 in 6.2 mi WSW 23.0 mph - N/A   Partly Cloudy
9:00 AM 32.0 °F 19.8 °F 30.2 °F 93% 29.53 in 6.2 mi WSW 20.7 mph - N/A   Scattered Clouds
9:30 AM 33.8 °F 21.3 °F 30.2 °F 87% 29.50 in 6.2 mi WSW 24.2 mph - N/A   Scattered Clouds
10:00 AM 33.8 °F 21.0 °F 30.2 °F 87% 29.50 in 6.2 mi WSW 25.3 mph - N/A   Mostly Cloudy
10:30 AM 33.8 °F 20.8 °F 30.2 °F 87% 29.50 in 6.2 mi WSW 26.5 mph - N/A   Scattered Clouds
11:00 AM 33.8 °F 20.8 °F 30.2 °F 87% 29.47 in 6.2 mi WSW 26.5 mph - N/A   Mostly Cloudy
11:30 AM 35.6 °F 23.2 °F 32.0 °F 87% 29.47 in 6.2 mi WSW 26.5 mph - N/A   Mostly Cloudy
12:00 PM 38 °F - 33 °F 74% 29.47 in 25 mi WSW 29.1 mph - -   Partly Cloudy
12:00 PM 37.4 °F 25.2 °F 32.0 °F 81% 29.44 in 6.2 mi WSW 28.8 mph - N/A   Mostly Cloudy
12:30 PM 39.2 °F 26.6 °F 33.8 °F 81% 29.42 in 6.2 mi WSW 34.5 mph 47.2 mph N/A   Scattered Clouds
1:00 PM 41.0 °F 29.7 °F 35.6 °F 81% 29.42 in 6.2 mi WSW 31.1 mph 42.6 mph N/A   Mostly Cloudy
1:30 PM 41.0 °F 29.1 °F 35.6 °F 81% 29.42 in 6.2 mi WSW 34.5 mph - N/A Rain Light Rain Showers
2:00 PM 41.0 °F 30.0 °F 37.4 °F 87% 29.42 in 6.2 mi West 28.8 mph 43.7 mph N/A Rain Light Rain Showers
2:30 PM 41.0 °F 31.1 °F 37.4 °F 87% 29.42 in 6.2 mi West 23.0 mph - N/A   Mostly Cloudy
3:00 PM 42.8 °F 32.9 °F 37.4 °F 81% 29.42 in 6.2 mi West 26.5 mph - N/A   Mostly Cloudy
3:30 PM 42.8 °F 33.1 °F 37.4 °F 81% 29.42 in 6.2 mi West 25.3 mph - N/A   Mostly Cloudy
4:00 PM 42.8 °F 34.0 °F 37.4 °F 81% 29.42 in 6.2 mi WNW 20.7 mph 33.4 mph N/A   Partly Cloudy
4:30 PM 44.6 °F 35.7 °F 37.4 °F 76% 29.44 in 6.2 mi WNW 24.2 mph 38.0 mph N/A   Scattered Clouds
5:00 PM 42.8 °F 32.9 °F 37.4 °F 81% 29.44 in 6.2 mi WNW 26.5 mph 39.1 mph N/A   Partly Cloudy
5:30 PM 42.8 °F 33.5 °F 37.4 °F 81% 29.47 in 6.2 mi WNW 23.0 mph - N/A   Partly Cloudy
6:00 PM 43 °F - 36 °F 69% 29.52 in 19 mi WNW 22.4 mph - -   Partly Cloudy
6:00 PM 42.8 °F 33.3 °F 37.4 °F 81% 29.50 in 6.2 mi WNW 24.2 mph - N/A   Partly Cloudy
6:30 PM 42.8 °F 33.5 °F 35.6 °F 76% 29.50 in 6.2 mi WNW 23.0 mph - N/A   Mostly Cloudy
7:00 PM 42.8 °F 33.5 °F 35.6 °F 76% 29.53 in 6.2 mi WNW 23.0 mph - N/A   Scattered Clouds
7:30 PM 41.0 °F 31.1 °F 35.6 °F 81% 29.53 in 6.2 mi WNW 23.0 mph - N/A   Scattered Clouds
8:00 PM 41.0 °F 30.9 °F 35.6 °F 81% 29.56 in 6.2 mi WNW 24.2 mph - N/A   Mostly Cloudy
8:30 PM 41.0 °F 30.2 °F 35.6 °F 81% 29.56 in 6.2 mi WNW 27.6 mph 39.1 mph N/A   Mostly Cloudy
9:00 PM 39.2 °F 28.0 °F 35.6 °F 87% 29.59 in 6.2 mi WNW 26.5 mph 38.0 mph N/A   Partly Cloudy
9:30 PM 41.0 °F 30.5 °F 35.6 °F 81% 29.62 in 6.2 mi WNW 26.5 mph - N/A Rain Light Rain Showers
10:00 PM 41.0 °F 31.4 °F 35.6 °F 81% 29.65 in 6.2 mi WNW 21.9 mph 34.5 mph N/A   Scattered Clouds
10:30 PM 41.0 °F 30.7 °F 33.8 °F 76% 29.65 in 6.2 mi WNW 25.3 mph - N/A   Scattered Clouds
11:00 PM 39.2 °F 27.6 °F 33.8 °F 81% 29.65 in 6.2 mi WNW 28.8 mph 40.3 mph N/A   Scattered Clouds
11:30 PM 39.2 °F 27.8 °F 33.8 °F 81% 29.71 in 6.2 mi NW 27.6 mph 39.1 mph N/A   Scattered Clouds